Вернуться в каталог

KUIPER-00018

АктивенСвязьLEO
NORAD 63733·PAYLOAD·🇺🇸 United States

Запущен Apr 28, 2025 с Cape Canaveral Space Force Station

Loading…

Ближайшие Пролёты (ближайшие 24 часа)

TLE

СвежийSource: CelesTrak SupGP

Эпоха: Sep 15, 2026, 05:29 UTC

1 63733C 25088K   26258.22902778  .00001334  00000+0  17461-3 0  2585
2 63733  51.9034 342.4756 0000328  83.7170  11.0319 14.79921498    16

Отслеживайте KUIPER-00018 в реальном времени с AllMySat

Download on the App Store